User: anonymous   Login
Location: Eckley
(40.9930°N, 75.8630°W)
Time: 02:32:07
(UTC-04:00)
Language:

Cosmos 2221 Rocket - Orbit

View from above orbital plane
View from above orbital plane
View from above satellite
View from above satellite

Ground track
Ground track

The orbit data is extracted from the following two-line orbital elements,

1 22237U 92080B   16207.16058088  .00000105  00000-0  11236-4 0  9990
2 22237  82.5107  61.9280 0019392 190.5793 309.0855 14.78271902275123
Epoch (UTC): 25 July 2016 03:51:14
Eccentricity: 0.0019392
inclination: 82.5107°
perigee height: 621 km
apogee height: 648 km
right ascension of ascending node: 61.9280°
argument of perigee: 190.5793°
revolutions per day: 14.78271902
mean anomaly at epoch: 309.0855°
orbit number at epoch: 27512

The dashed part of the orbit path shows where the satellite is in the earth's shadow,  

DLR